Regional Weather Roundup
Issued by NWS

Home | Current Version | Previous Version | Graphics & Text | Print | Product List | Glossary On
Versions: 1 2 3 4 5 6 7 8 9 10 11 12 13 14 15 16 17 18 19 20 21 22 23 24 25 26 27 28 29 30 31 32 33 34 35 36 37 38 39 40 41 42 43 44 45 46 47 48 49 50
000
ASUS43 KLSX 231859
RWRMO

WEATHER SUMMARY FOR MISSOURI
NATIONAL WEATHER SERVICE SPRINGFIELD MO
200 PM CDT THU MAR 23 2017

NOTE: "FAIR" INDICATES FEW OR NO CLOUDS BELOW 12,000 FEET WITH NO
       SIGNIFICANT WEATHER AND/OR OBSTRUCTIONS TO VISIBILITY.
       CURRENT SKY AND/OR WEATHER CONDITIONS ARE NOT AVAILABLE FOR
       CHILLICOTHE AND FARMINGTON.

MOZ001>031-035>038-043-044-053-054-232000-
...NORTHERN AND WESTERN MISSOURI...

CITY           SKY/WX    TMP DP  RH WIND       PRES   REMARKS
KANSAS CTY INT MOSUNNY   74  51  44 S23G31    29.89F
LEE`S SUMMIT   SUNNY     74  52  46 S17G32    29.93F
ST JOSEPH      SUNNY     74  51  44 S24G31    29.84F
CHILLICOTHE      N/A     68  39  34 SE17G25   29.96F

$$
MOZ066>068-077>081-088>096-101>105-232000-
...SOUTHWEST MISSOURI...

CITY           SKY/WX    TMP DP  RH WIND       PRES   REMARKS
SPRINGFIELD    SUNNY     72  50  45 S18       30.05F
JOPLIN         SUNNY     77  49  37 S18G30    30.00F
BRANSON        MOSUNNY   70  50  49 S13G18    30.11F

$$
MOZ032>034-039>042-045>050-055>058-069>072-232000-
...CENTRAL MISSOURI...

CITY           SKY/WX    TMP DP  RH WIND       PRES   REMARKS
COLUMBIA       NOT AVBL
JEFFERSON CITY SUNNY     74  44  34 S10       30.05F
ROLLA          SUNNY     70  45  40 S17G25    30.07F
SEDALIA        SUNNY     77  52  41 S18G32    30.00F
WARRENSBURG    SUNNY     73  50  43 S16G24    29.95F

$$
MOZ051-052-059>065-232000-
...EAST CENTRAL MISSOURI...

CITY           SKY/WX    TMP DP  RH WIND       PRES   REMARKS
ST LOUIS INTL  PTSUNNY   48  37  65 SE18      30.17F

$$
MOZ072>076-082>087-097>100-106>115-232000-
...SOUTH CENTRAL AND SOUTHEAST MISSOURI...

CITY           SKY/WX    TMP DP  RH WIND       PRES   REMARKS
CAPE GIRARDEAU SUNNY     58  36  43 SE12      30.23F
POPLAR BLUFF   SUNNY     59  41  51 VRB6      30.21F
WEST PLAINS    SUNNY     68  44  42 S14G20    30.15F

$$




USA.gov is the U.S. government's official web portal to all federal, state and local government web resources and services.